Omak, WA

7:33 AM PST on February 13, 2016 (GMT -0800)
Omak

Weather History for KOMK - April, 2014

Change the Weather History Date:

Sunday, April 13, 2014

  Actual Average Record
Temperature  
Mean Temperature 49 °F 50 °F  
Max Temperature 65 °F 63 °F 83 °F (1943)
Min Temperature 32 °F 36 °F 17 °F (1968)
Degree Days  
Heating Degree Days 16 16  
Month to date heating degree days 201 218  
Since 1 July heating degree days 5941 5808  
Cooling Degree Days 0 0  
Month to date cooling degree days 0 0  
Year to date cooling degree days 0 0  
Moisture  
Dew Point 16 °F    
Average Humidity 33    
Maximum Humidity 59    
Minimum Humidity 7    
Precipitation  
Precipitation 0.00 in 0.03 in 0.63 in (1995)
Month to date precipitation T 0.44  
Year to date precipitation 2.98 4.60  
Sea Level Pressure  
Sea Level Pressure 30.30 in    
Wind  
Wind Speed 7 mph (WNW)    
Max Wind Speed 17 mph    
Max Gust Speed 22 mph    
Visibility 10 miles    
Events      
T = Trace of Precipitation, MM = Missing Value Source: NWS Daily Summary

Daily Weather History Graph

Daily Weather History Graph

Search for Another Location

Airport or City:

Trip Planner

Search our weather history database for the weather conditions in past years. The results will help you decide how hot, cold, wet, or windy it might be!

Date:

Astronomy

Apr. 13, 2014 Rise Set
Actual Time 6:11 AM PDT 7:46 PM PDT
Civil Twilight 5:38 AM PDT 8:19 PM PDT
Nautical Twilight 4:58 AM PDT 8:59 PM PDT
Astronomical Twilight 4:15 AM PDT 9:43 PM PDT
Moon 6:24 PM PDT 5:20 AM PDT
Length of Visible Light 14h 40m
Length of Day
13h 34m
Waxing Gibbous, 97% of the Moon is Illuminated
Apr 13
Waxing Gibbous
Apr 15
Full
Apr 22
Last Quarter
Apr 28
New
May 6
First Quarter

Hourly Weather History & Observations

Time (PDT) Temp. Windchill Dew Point Humidity Pressure Visibility Wind Dir Wind Speed Gust Speed Precip Events Conditions
12:53 AM 42.1 °F 36.1 °F 17.1 °F 37% 30.23 in 10.0 mi NNW 10.4 mph - N/A   Clear
1:53 AM 37.9 °F 32.7 °F 19.0 °F 47% 30.25 in 10.0 mi North 6.9 mph - N/A   Clear
2:53 AM 36.0 °F 29.0 °F 19.0 °F 50% 30.27 in 10.0 mi NW 9.2 mph - N/A   Clear
3:53 AM 34.0 °F 27.2 °F 19.9 °F 56% 30.29 in 10.0 mi NW 8.1 mph - N/A   Clear
4:53 AM 33.1 °F 27.7 °F 19.9 °F 59% 30.30 in 10.0 mi North 5.8 mph - N/A   Clear
5:53 AM 32.0 °F 26.4 °F 19.9 °F 61% 30.33 in 10.0 mi NW 5.8 mph - N/A   Clear
6:53 AM 37.0 °F 33.3 °F 19.9 °F 50% 30.35 in 10.0 mi NW 4.6 mph - N/A   Clear
7:53 AM 44.1 °F 38.1 °F 21.9 °F 42% 30.36 in 10.0 mi NNW 11.5 mph - N/A   Clear
8:53 AM 50.0 °F - 21.9 °F 33% 30.37 in 10.0 mi NNW 12.7 mph - N/A   Clear
9:53 AM 53.1 °F - 23.0 °F 31% 30.37 in 10.0 mi North 10.4 mph - N/A   Clear
10:53 AM 57.0 °F - 21.9 °F 26% 30.37 in 10.0 mi North 10.4 mph - N/A   Clear
11:53 AM 60.1 °F - 19.9 °F 21% 30.36 in 10.0 mi North 10.4 mph - N/A   Clear
12:53 PM 59.0 °F - 12.0 °F 16% 30.34 in 10.0 mi Variable 3.5 mph - N/A   Clear
1:53 PM 62.1 °F - 12.0 °F 14% 30.33 in 10.0 mi SW 6.9 mph - N/A   Clear
2:53 PM 62.1 °F - 3.0 °F 9% 30.32 in 10.0 mi Variable 4.6 mph - N/A   Clear
3:53 PM 64.0 °F - -0.0 °F 8% 30.30 in 10.0 mi Variable 4.6 mph - N/A   Clear
4:53 PM 64.0 °F - -0.0 °F 8% 30.28 in 10.0 mi Variable 4.6 mph - N/A   Clear
5:53 PM 64.0 °F - -0.0 °F 8% 30.27 in 10.0 mi SSW 5.8 mph - N/A   Clear
6:53 PM 61.0 °F - 14.0 °F 16% 30.25 in 10.0 mi SSW 5.8 mph - N/A   Clear
7:53 PM 52.0 °F - 15.1 °F 23% 30.25 in 10.0 mi South 5.8 mph - N/A   Clear
8:53 PM 45.0 °F - 18.0 °F 34% 30.27 in 10.0 mi Calm Calm - N/A   Clear
9:53 PM 44.1 °F 40.8 °F 18.0 °F 35% 30.28 in 10.0 mi SW 5.8 mph - N/A   Clear
10:53 PM 46.0 °F 43.1 °F 18.0 °F 33% 30.27 in 10.0 mi SW 5.8 mph - N/A   Clear
11:53 PM 41.0 °F 37.1 °F 19.0 °F 41% 30.27 in 10.0 mi West 5.8 mph - N/A   Clear